[[{"header":{"parameterUnit":"m.s-1","parameterCategory":1,"la1":30.2991,"la2":30.254,"lo1":-89.0895,"lo2":-89.0444,"dy":0.0017,"dx":0.0017,"nx":28,"ny":28,"refTime":"2025-05-21T03:00:00:Z","depth":0,"parameterNumber":2,"parameterNumberName":"U-component_of_WINDS"},"data":[0,0,0,0,0,0,0,0,0,0,0,0,0,0,0,0,0,0,0,0,0,0,0,0,0,0,0,0,0,0,0,0,0,0,0,0,0,0,0,0,0,0,0,0,0,0,0,0,0,0,0,0,0,0,0,0,0,0,0.6741,0.6742,0,0.6765,0.6765,0.6765,0.6691,0.6689,0.6687,0.6685,0.6712,0.6715,0.6718,0,0,0,0,0,0,0,0,0,0,0,0,0,0.6635,0.6638,0.6741,0.6742,0.6742,0.6765,0.6765,0.6765,0.6692,0.6689,0.6686,0.6684,0.6712,0.6715,0.6718,0,0,0,0,0,0,0,0,0,0,0,0,0,0.6673,0.6638,0.6741,0.6708,0.6705,0.6765,0.6765,0.6766,0.6692,0.6689,0.6685,0.6682,0.671,0.6715,0.6719,0.6813,0,0,0.6732,0.6734,0,0,0,0,0,0,0,0,0.667,0.6676,0.6712,0.671,0.6707,0.6722,0.6738,0.6782,0.6693,0.6697,0.6685,0.6681,0.6718,0.6722,0.6734,0.6814,0.6816,0.6732,0.6735,0.6737,0.6738,0,0,0,0,0,0,0,0.6668,0.6675,0.6751,0.6713,0.671,0.6692,0.6694,0.6746,0.6727,0.6697,0.6691,0.6695,0.6716,0.673,0.6734,0.6816,0.6732,0.6736,0.6739,0.674,0.6976,0.6979,0,0,0,0,0,0,0.6669,0.6673,0.675,0.6751,0.668,0.6697,0.6699,0.672,0.6726,0.6723,0.6698,0.6691,0.6724,0.6729,0.6735,0.6846,0.6737,0.6741,0.6743,0.6972,0.6976,0.698,0,0,0,0,0,0,0.6667,0.6677,0.6749,0.6711,0.6719,0.6703,0.6727,0.6723,0.6736,0.6727,0.6723,0.6715,0.6722,0.6729,0.6794,0.6846,0.6743,0.6746,0.6968,0.6973,0.6978,0.707,0,0,0,0,0,0,0.6665,0.6677,0.6712,0.6712,0.6721,0.6808,0.6731,0.6726,0.6743,0.6735,0.6742,0.674,0.672,0.6788,0.6798,0.685,0.675,0.6963,0.697,0.6977,0.7062,0.7078,0.7091,0,0,0,0,0,0.6661,0.6737,0.6714,0.6724,0.6764,0.6811,0.6816,0.679,0.6748,0.6783,0.6777,0.674,0.6838,0.6795,0.6806,0.686,0.696,0.6968,0.6976,0.7056,0.7075,0.7091,0,0,0,0,0,0,0.6745,0.6737,0.6711,0.6789,0.6801,0.6798,0.6842,0.6811,0.6836,0.6828,0.6795,0.6797,0.6869,0.6871,0.6823,0.6952,0.6892,0.6903,0.6948,0.6966,0.6981,0.698,0.6753,0,0,0,0,0,0.6772,0.6809,0.68,0.6871,0.6878,0.6859,0.6878,0.6857,0.6868,0.6874,0.6872,0.6886,0.6919,0.6943,0.6973,0.7061,0.7062,0.7104,0.7118,0.713,0.714,0.7188,0.7206,0.7008,0.7008,0.7007,0,0,0.683,0.683,0.6855,0.6887,0.6894,0.6934,0.6864,0.6909,0.6939,0.6881,0.6942,0.6942,0.6955,0.7032,0.7066,0.7036,0.7195,0.7141,0.715,0.7154,0.7198,0.7217,0.7234,0.7013,0.7012,0.7011,0,0,0.6955,0.6958,0.7017,0.7025,0.7035,0.7022,0.7036,0.7038,0.7035,0.7096,0.7053,0.7088,0.7147,0.7158,0.7172,0.73,0.7267,0.7311,0.7388,0.7434,0.745,0.7463,0.751,0.7527,0.7321,0.7321,0.7321,0,0.7026,0.7083,0.7052,0.71,0.7116,0.7063,0.7123,0.7132,0.7153,0.7166,0.7131,0.7203,0.7208,0.7288,0.7319,0.7331,0.7347,0.7311,0.745,0.7463,0.7475,0.752,0.7538,0.7326,0.7326,0.7325,0.7325,0,0.717,0.7211,0.7257,0.7277,0.7298,0.7352,0.7329,0.7354,0.7331,0.7322,0.7385,0.7388,0.7419,0.7436,0.7414,0.7512,0.7493,0.7455,0.7394,0.75,0.7542,0.7558,0.7334,0.7332,0.7331,0.7329,0,0,0.7351,0.7351,0.7369,0.7378,0.7385,0.7416,0.7468,0.7496,0.7519,0.7534,0.7578,0.7628,0.7592,0.7607,0.7586,0.7627,0.7729,0.7583,0.7583,0.7611,0.7839,0.7869,0.7889,0.7706,0.7709,0.7712,0.7838,0,0.7475,0.7563,0.7535,0.7624,0.7662,0.7612,0.7657,0.7666,0.7659,0.7691,0.7682,0.7719,0.7668,0.7677,0.7715,0.7709,0.7775,0.7699,0.7748,0.775,0.7748,0.7911,0.7943,0.8062,0.7854,0.7857,0.7859,0,0.7633,0.7653,0.7745,0.7746,0.776,0.7801,0.7825,0.7856,0.7866,0.7858,0.7874,0.7844,0.7896,0.7834,0.7905,0.7854,0.7872,0.7872,0.7876,0.7881,0.7812,0.7922,0.8099,0.8118,0.7884,0.7882,0.788,0,0.7757,0.7807,0.7869,0.7878,0.7879,0.7909,0.7912,0.7918,0.7937,0.7958,0.797,0.7998,0.8013,0.8035,0.8014,0.797,0.8089,0.8025,0.8085,0.8086,0.8114,0.8113,0.8299,0.8123,0.8123,0.8123,0.8122,0,0.7899,0.7958,0.7925,0.7963,0.8028,0.7995,0.8061,0.8057,0.8063,0.8101,0.8059,0.8095,0.8064,0.8098,0.8081,0.8143,0.815,0.8146,0.8142,0.8151,0.8152,0.8164,0.8156,0.8127,0.8126,0.8125,0.8124,0,0.805,0.803,0.8094,0.8089,0.809,0.8138,0.8134,0.817,0.8159,0.8207,0.8216,0.82,0.8237,0.8217,0.8256,0.8245,0.8326,0.8309,0.8323,0.8319,0.8381,0.8376,0.8582,0.8608,0.8415,0.8416,0.8418,0,0.8143,0.8187,0.8187,0.8208,0.8213,0.8248,0.8267,0.8237,0.8258,0.8272,0.8307,0.834,0.8366,0.8428,0.842,0.845,0.8435,0.8505,0.8439,0.8447,0.8437,0.8436,0.844,0.8519,0.8521,0.8523,0.8524,0,0.8311,0.8299,0.8326,0.8351,0.8374,0.8392,0.8407,0.8427,0.8397,0.8424,0.8461,0.848,0.8519,0.8554,0.8579,0.8582,0.855,0.8545,0.856,0.8571,0.8578,0.8576,0.836,0.8541,0.8539,0.8538,0.8537,0.8536,0.8437,0.8473,0.8479,0.8511,0.8519,0.8533,0.8567,0.8559,0.8589,0.8618,0.8598,0.8643,0.8651,0.8682,0.8689,0.8724,0.8696,0.8719,0.8725,0.8731,0.874,0.8571,0.8729,0.8728,0.8728,0.8727,0.8727,0,0.8604,0.8604,0.8634,0.8655,0.8681,0.8645,0.866,0.8684,0.8723,0.8733,0.8759,0.8802,0.8834,0.8828,0.8858,0.8887,0.8873,0.8897,0.8895,0.8896,0.8763,0.8747,0.8908,0.8908,0.8908,0.8908,0.8908,0.8908,0.8694,0.8754,0.8742,0.8806,0.8806,0.8848,0.8859,0.8873,0.8881,0.893,0.8957,0.8952,0.8956,0.8986,0.9015,0.9012,0.9026,0.9056,0.9048,0.8924,0.8906,0.8889,0.8874,0.9058,0.9059,0.9178,0.9179,0.918]},{"header":{"parameterUnit":"m.s-1","parameterCategory":1,"la1":30.2991,"la2":30.254,"lo1":-89.0895,"lo2":-89.0444,"dy":0.0017,"dx":0.0017,"nx":28,"ny":28,"refTime":"2025-05-21T03:00:00:Z","depth":0,"parameterNumber":3,"parameterNumberName":"V-component_of_WINDS"},"data":[0,0,0,0,0,0,0,0,0,0,0,0,0,0,0,0,0,0,0,0,0,0,0,0,0,0,0,0,0,0,0,0,0,0,0,0,0,0,0,0,0,0,0,0,0,0,0,0,0,0,0,0,0,0,0,0,0,0,-0.7777,-0.7778,0,-0.7862,-0.7863,-0.7864,-0.7945,-0.7946,-0.7947,-0.7948,-0.8034,-0.8035,-0.8036,0,0,0,0,0,0,0,0,0,0,0,0,0,-0.7681,-0.7683,-0.7776,-0.7778,-0.7779,-0.7862,-0.7863,-0.7864,-0.7944,-0.7946,-0.7947,-0.7948,-0.8033,-0.8035,-0.8036,0,0,0,0,0,0,0,0,0,0,0,0,0,-0.774,-0.7683,-0.7776,-0.7829,-0.7834,-0.7862,-0.7863,-0.7865,-0.7944,-0.7946,-0.7947,-0.7949,-0.8033,-0.8035,-0.8037,-0.8019,0,0,-0.8043,-0.8044,0,0,0,0,0,0,0,0,-0.7737,-0.7744,-0.782,-0.7825,-0.7831,-0.7894,-0.7861,-0.7916,-0.7944,-0.7902,-0.7948,-0.7949,-0.7986,-0.7992,-0.8005,-0.8023,-0.8027,-0.8043,-0.8044,-0.8045,-0.8046,0,0,0,0,0,0,0,-0.7733,-0.7741,-0.781,-0.7821,-0.7828,-0.7848,-0.7858,-0.7872,-0.7934,-0.7906,-0.7912,-0.7921,-0.7989,-0.8002,-0.8007,-0.8028,-0.8043,-0.8045,-0.8046,-0.8047,-0.8037,-0.8035,0,0,0,0,0,0,-0.7721,-0.7737,-0.7808,-0.7813,-0.7787,-0.7848,-0.7859,-0.7873,-0.7935,-0.7946,-0.792,-0.7925,-0.7998,-0.8005,-0.801,-0.7994,-0.8045,-0.8047,-0.8048,-0.8038,-0.8037,-0.8035,0,0,0,0,0,0,-0.7718,-0.7726,-0.7804,-0.7777,-0.7788,-0.7848,-0.7862,-0.7873,-0.7887,-0.7945,-0.7956,-0.7922,-0.8,-0.8008,-0.8017,-0.7998,-0.8048,-0.805,-0.804,-0.8038,-0.8036,-0.7961,0,0,0,0,0,0,-0.7715,-0.7725,-0.7719,-0.7776,-0.7789,-0.7809,-0.7861,-0.7874,-0.789,-0.7897,-0.795,-0.796,-0.8001,-0.8013,-0.8018,-0.8002,-0.8051,-0.8042,-0.8039,-0.8036,-0.7965,-0.7956,-0.7949,0,0,0,0,0,-0.7712,-0.7694,-0.7718,-0.7726,-0.7783,-0.7807,-0.7815,-0.7863,-0.7888,-0.7883,-0.7921,-0.7958,-0.8,-0.8013,-0.802,-0.8004,-0.8043,-0.804,-0.8037,-0.7969,-0.7958,-0.7949,0,0,0,0,0,0,-0.7632,-0.7702,-0.773,-0.773,-0.7762,-0.7821,-0.7815,-0.785,-0.7876,-0.7881,-0.794,-0.7951,-0.7953,-0.798,-0.7994,-0.7991,-0.8027,-0.8025,-0.7973,-0.7963,-0.7955,-0.7948,-0.8053,0,0,0,0,0,-0.7615,-0.763,-0.769,-0.7684,-0.7699,-0.7754,-0.7767,-0.7801,-0.7837,-0.7851,-0.7889,-0.7922,-0.7942,-0.7954,-0.7976,-0.797,-0.7983,-0.7962,-0.7954,-0.7947,-0.7944,-0.7943,-0.7935,-0.8024,-0.8024,-0.8024,0,0,-0.7579,-0.7619,-0.7625,-0.7669,-0.7698,-0.7712,-0.7765,-0.7777,-0.7788,-0.7852,-0.7863,-0.7893,-0.7933,-0.7934,-0.7937,-0.7956,-0.7923,-0.7943,-0.7937,-0.7938,-0.7939,-0.793,-0.7923,-0.8022,-0.8022,-0.8023,0,0,-0.752,-0.7552,-0.7551,-0.758,-0.7623,-0.7661,-0.766,-0.7714,-0.7736,-0.7748,-0.7797,-0.7811,-0.7845,-0.7872,-0.789,-0.7843,-0.7879,-0.7848,-0.7805,-0.7803,-0.7796,-0.779,-0.7774,-0.7767,-0.7846,-0.7845,-0.7845,0,-0.747,-0.7493,-0.7546,-0.7555,-0.7574,-0.7634,-0.7634,-0.7659,-0.7707,-0.7718,-0.7739,-0.7784,-0.7815,-0.7824,-0.7813,-0.7825,-0.7827,-0.7842,-0.7793,-0.7788,-0.7783,-0.7768,-0.7761,-0.7841,-0.7842,-0.7842,-0.7843,0,-0.7429,-0.7444,-0.7438,-0.7484,-0.7501,-0.7505,-0.7559,-0.7571,-0.7605,-0.7639,-0.7651,-0.7691,-0.7723,-0.7728,-0.776,-0.7741,-0.7752,-0.7782,-0.782,-0.777,-0.7756,-0.7751,-0.7836,-0.7837,-0.7838,-0.7839,0,0,-0.7321,-0.7398,-0.7394,-0.7416,-0.747,-0.7482,-0.7489,-0.7521,-0.753,-0.7561,-0.7569,-0.7597,-0.7626,-0.7646,-0.7683,-0.7681,-0.7642,-0.7713,-0.7714,-0.7698,-0.7623,-0.7599,-0.7591,-0.7666,-0.7665,-0.7665,-0.762,0,-0.7271,-0.7288,-0.7337,-0.7338,-0.7353,-0.7411,-0.7418,-0.7451,-0.7484,-0.7501,-0.7538,-0.7557,-0.7594,-0.7607,-0.7608,-0.7646,-0.7627,-0.765,-0.7673,-0.7673,-0.766,-0.7584,-0.7559,-0.7514,-0.7615,-0.7614,-0.7613,0,-0.7214,-0.7243,-0.7246,-0.73,-0.7308,-0.7313,-0.7346,-0.7362,-0.7401,-0.7425,-0.7449,-0.7489,-0.75,-0.7536,-0.7552,-0.7566,-0.7579,-0.7599,-0.7598,-0.7602,-0.764,-0.7585,-0.7502,-0.7494,-0.7606,-0.7606,-0.7607,0,-0.7135,-0.7175,-0.7182,-0.7199,-0.7262,-0.7264,-0.729,-0.7331,-0.7347,-0.7376,-0.7387,-0.7417,-0.7433,-0.7455,-0.7503,-0.7524,-0.7513,-0.7552,-0.7533,-0.7532,-0.7527,-0.7527,-0.7444,-0.7536,-0.7536,-0.7536,-0.7537,0,-0.7074,-0.7073,-0.7147,-0.7152,-0.7153,-0.721,-0.721,-0.7241,-0.7277,-0.7289,-0.7341,-0.7351,-0.7414,-0.7431,-0.7468,-0.7476,-0.7482,-0.7502,-0.7512,-0.7497,-0.7494,-0.7505,-0.7509,-0.7535,-0.7535,-0.7536,-0.7536,0,-0.6985,-0.7035,-0.7046,-0.7105,-0.712,-0.7119,-0.7169,-0.7175,-0.7212,-0.7226,-0.7233,-0.729,-0.7313,-0.7363,-0.7399,-0.7424,-0.7422,-0.744,-0.7409,-0.7415,-0.7393,-0.7394,-0.7313,-0.7305,-0.7403,-0.7402,-0.7401,0,-0.6942,-0.6943,-0.7003,-0.7014,-0.7039,-0.7057,-0.7074,-0.713,-0.7145,-0.7191,-0.7192,-0.7219,-0.7243,-0.7277,-0.7322,-0.735,-0.7369,-0.7339,-0.7373,-0.7358,-0.7368,-0.7367,-0.7367,-0.733,-0.7329,-0.7328,-0.7327,0,-0.6861,-0.6885,-0.6908,-0.694,-0.6959,-0.6986,-0.7016,-0.7023,-0.7086,-0.7101,-0.7125,-0.7144,-0.7182,-0.7208,-0.7243,-0.727,-0.7309,-0.7316,-0.7313,-0.7297,-0.7279,-0.7288,-0.7387,-0.7317,-0.7318,-0.7319,-0.732,-0.732,-0.6793,-0.6797,-0.684,-0.6864,-0.6893,-0.692,-0.6929,-0.6967,-0.6989,-0.7024,-0.7056,-0.7077,-0.7117,-0.7168,-0.7193,-0.721,-0.723,-0.7225,-0.7224,-0.7222,-0.7215,-0.7277,-0.7217,-0.7217,-0.7218,-0.7218,-0.7218,0,-0.6714,-0.6745,-0.6766,-0.6807,-0.6826,-0.6862,-0.6898,-0.6911,-0.6929,-0.6963,-0.6987,-0.7015,-0.7041,-0.7088,-0.7118,-0.7123,-0.7142,-0.7129,-0.7129,-0.7134,-0.7196,-0.7196,-0.7114,-0.7114,-0.7114,-0.7114,-0.7114,-0.7114,-0.6675,-0.6684,-0.6714,-0.6738,-0.6769,-0.679,-0.6807,-0.6833,-0.6861,-0.689,-0.6912,-0.6943,-0.6983,-0.7016,-0.7042,-0.7055,-0.7063,-0.7045,-0.7064,-0.712,-0.713,-0.7139,-0.7139,-0.7046,-0.7046,-0.7,-0.7,-0.7]}]]